Flag for El Salvador Weather past 2 weeks in San Salvador, El Salvador

Now
70 °F

Rain. Passing clouds.


Feels Like: 70 °F
Forecast: 69 / 81 °F
Wind: 7 mph from South

Location: San Salvador / Ilopango

Current Time: Sep 19, 2014 at 12:55:20 AM

Latest Report: Sep 18, 2014 at 11:50 PM


Visibility: N/A

Pressure: 30.01 "Hg

Humidity: 94%

Dew point: 68 °F

Location of San SalvadorLocation

Historic Weather in San Salvador — Graph

°F

San Salvador temperature yesterday

Maximum temperature yesterday: 86 °F (at 12:50 PM)
Minimum temperature yesterday: 70 °F (at 9:50 PM)
Average temperature yesterday: 78 °F

Past Weeks' High & Low Weather Summary

 TemperatureHumidityPressure
High88 °F (Sep 4, 12:50 PM)100% (Sep 3, 11:50 PM)30.09 "Hg (Sep 3, 11:50 PM)
Low66 °F (Sep 4, 5:50 AM)59% (Sep 4, 2:50 PM)29.86 "Hg (Sep 10, 3:50 PM)
Average76 °F85%29.96 "Hg
* Reported Sep 3 10:50 PM — Sep 18 10:50 PM, San Salvador, Weather by CustomWeather, © 2014

Note: Actual official high and low records may vary slightly from our data, if they occured in-between our weather recording intervals... More about our weather records

Advertising

San Salvador weather history for previous 24 hours

 ConditionsComfort  
Time TempWeatherWind HumidityBarometerVisibility
10:50 PM
Sep 18
70 °FPassing clouds.No wind94%30.04 "HgN/A
9:50 PM70 °FRain. Passing clouds.7 mph94%30.01 "Hg5 mi
8:50 PM72 °FRain. Passing clouds.5 mph100%30.01 "Hg5 mi
7:50 PM73 °FThunderstorms. Passing clouds.7 mph89%29.98 "Hg4 mi
6:50 PM75 °FPassing clouds.7 mph89%29.95 "HgN/A
5:50 PM77 °FThundershowers. Partly sunny.6 mph89%29.92 "HgN/A
4:50 PM79 °FThundershowers. Partly sunny.5 mph84%29.92 "HgN/A
3:50 PM81 °FThundershowers. Passing clouds.9 mph79%29.89 "HgN/A
2:50 PM84 °FScattered clouds.5 mph74%29.89 "HgN/A
1:50 PM86 °FScattered clouds.5 mph62%29.95 "HgN/A
12:50 PM86 °FScattered clouds.3 mph66%29.95 "HgN/A
11:50 AM84 °FScattered clouds.3 mph70%29.98 "HgN/A
10:50 AM82 °FScattered clouds.3 mph74%30.01 "HgN/A
9:50 AM79 °FScattered clouds.2 mph84%30.01 "Hg5 mi
8:50 AM77 °FScattered clouds.3 mph89%30.01 "Hg5 mi
7:50 AM73 °FPartly sunny.No wind94%30.01 "HgN/A
6:50 AM72 °FFog.2 mph100%30.01 "HgN/A
5:50 AM81 °FPartly sunny.2 mph74%29.98 "Hg5 mi
Weather by CustomWeather, © 2014

See weather overviewHow to use our weather pages